This is the latest recevied weather packets stored in our database for station/object K7FRY. If no packets are shown the sender has not sent any weather packets the latest 10 day(s).
| Time | Temp. | Humidity | Pressure | Rain* | Wind** | Luminosity | Snow |
|---|---|---|---|---|---|---|---|
| 1777504750 | 27.78° C | 14% | 1013.7 hPa | 0 mm | - | 203 W/m² | - |
| 1777504447 | 27.78° C | 14% | 1013.7 hPa | 0 mm | - | 205 W/m² | - |
| 1777504143 | 28.33° C | 14% | 1013.8 hPa | 0 mm | - | 191 W/m² | - |
| 1777503838 | 27.78° C | 15% | 1013.8 hPa | 0 mm | - | 189 W/m² | - |
| 1777503535 | 27.78° C | 15% | 1013.7 hPa | 0 mm | - | 189 W/m² | - |
| 1777503231 | 28.33° C | 15% | 1013.9 hPa | 0 mm | - | 221 W/m² | - |
| 1777502928 | 28.33° C | 15% | 1013.8 hPa | 0 mm | - | 225 W/m² | - |
| 1777502625 | 28.33° C | 15% | 1013.9 hPa | 0 mm | - | 214 W/m² | - |
| 1777502322 | 28.33° C | 15% | 1013.8 hPa | 0 mm | - | 224 W/m² | - |
| 1777502019 | 28.33° C | 15% | 1014 hPa | 0 mm | - | 229 W/m² | - |
| 1777501716 | 28.33° C | 14% | 1013.9 hPa | 0 mm | - | 231 W/m² | - |
| 1777501413 | 28.89° C | 14% | 1014 hPa | 0 mm | - | 267 W/m² | - |
| 1777501110 | 28.89° C | 14% | 1014 hPa | 0 mm | - | 293 W/m² | - |
| 1777500809 | 28.89° C | 14% | 1014.1 hPa | 0 mm | - | 405 W/m² | - |
| 1777500506 | 29.44° C | 14% | 1014.1 hPa | 0 mm | - | 293 W/m² | - |
| 1777500202 | 29.44° C | 14% | 1014 hPa | 0 mm | - | 666 W/m² | - |
| 1777499899 | 29.44° C | 15% | 1014.4 hPa | 0 mm | - | 447 W/m² | - |
| 1777499595 | 29.44° C | 14% | 1014.4 hPa | 0 mm | - | 405 W/m² | - |
| 1777499292 | 30° C | 14% | 1014.5 hPa | 0 mm | - | 326 W/m² | - |
| 1777498990 | 29.44° C | 15% | 1014.2 hPa | 0 mm | - | 371 W/m² | - |
| 1777498686 | 30° C | 15% | 1014.4 hPa | 0 mm | - | 390 W/m² | - |
| 1777498382 | 29.44° C | 14% | 1014.6 hPa | 0 mm | - | 679 W/m² | - |
| 1777498080 | 28.89° C | 15% | 1014.7 hPa | 0 mm | - | 410 W/m² | - |
| 1777497776 | 29.44° C | 15% | 1015.1 hPa | 0 mm | - | 408 W/m² | - |
| 1777497473 | 29.44° C | 15% | 1014.8 hPa | 0 mm | - | 806 W/m² | - |
* Rain latest hour (hover to see other rain measurements)
** Current wind speed in m/s (hover to see current wind gust speed)